Location: Champs
(48.8539°N, 2.6040°E)
Time: 06:07:27
(UTC+00:00)

USA 234 - Pass Details

Date: 26 October 2021
Orbit: 1098 x 1110 km, 123.0° (Epoch: 25 November)

Event Time Altitude Azimuth Distance (km) Brightness Sun altitude
Rises 05:05:58 0° 55° (NE) 3,919 7.0 -13.9°
Reaches altitude 10° 05:08:29 10° 58° (ENE) 2,959 6.4 -13.5°
Maximum altitude 05:15:00 71° 142° (SE) 1,160 3.5 -12.4°
Drops below altitude 10° 05:21:31 10° 226° (SW) 2,954 5.1 -11.4°
Sets 05:24:00 0° 229° (SW) 3,911 5.8 -11.0°
